Terminal Aerodrome Forecast
Issued by NWS Hastings, NE

Home | Current Version | Previous Version | Text Only | Print | Product List | Glossary On
Versions: 1 2 3 4 5 6 7 8 9 10 11 12 13 14 15 16 17 18 19 20 21 22 23 24 25 26 27 28 29 30 31 32 33 34 35 36 37 38 39 40 41 42 43 44 45 46 47 48 49 50
000
FTUS43 KGID 221737
TAFGRI
TAF
KGRI 221737Z 2218/2318 30018G25KT P6SM SCT025 BKN060
     FM230100 31015KT P6SM SCT010 BKN025
     FM230800 31017G24KT 5SM -SN BR SCT004 OVC010
     FM231700 34018G25KT P6SM SCT010 BKN025=

USA.gov is the U.S. government's official web portal to all federal, state and local government web resources and services.